Flag for Russia Weather past 2 weeks in Khabarovsk, Russia

Now
3 °F

Clear.


Feels Like: -4 °F
Forecast: -4 / 11 °F
Wind: 3 mph from South

Location: Habarovsk

Current Time: Dec 28, 2014 at 4:46:02 AM

Latest Report: Dec 28, 2014 at 4:00 AM


Visibility: 10 mi

Pressure: 30.07 "Hg

Humidity: 78%

Dew point: -2 °F

Location of KhabarovskLocation

Historic Weather in Khabarovsk — Graph

°F

Khabarovsk temperature yesterday

Maximum temperature yesterday: 10 °F (at 3:30 PM)
Minimum temperature yesterday: -15 °F (at 8:00 AM)
Average temperature yesterday: -2 °F

Past Weeks' High & Low Weather Summary

 TemperatureHumidityPressure
High10 °F (Dec 27, 3:30 PM)92% (Dec 17, 9:00 PM)30.42 "Hg (Dec 17, 9:00 PM)
Low-31 °F (Dec 26, 6:30 AM)49% (Dec 23, 1:30 PM)29.53 "Hg (Dec 22, 7:00 AM)
Average-11 °F72%30.03 "Hg
* Reported Dec 13 3:00 AM — Dec 28 3:30 AM, Khabarovsk, Weather by CustomWeather, © 2014

Note: Actual official high and low records may vary slightly from our data, if they occured in-between our weather recording intervals... More about our weather records

Advertising

Khabarovsk weather history for previous 24 hours

 ConditionsComfort  
Time TempWeatherWind HumidityBarometerVisibility
3:30 AM
Dec 28
3 °FClear.6 mph78%30.07 "Hg10 mi
3:00 AM3 °FClear.6 mph85%30.07 "Hg10 mi
2:30 AM1 °FClear.6 mph85%30.07 "Hg10 mi
2:00 AM3 °FClear.3 mph78%30.07 "Hg10 mi
1:30 AM7 °FClear.6 mph72%30.09 "Hg10 mi
1:00 AM7 °FClear.6 mph78%30.09 "Hg10 mi
12:30 AM3 °FClear.6 mph78%30.09 "Hg10 mi
12:00 AM5 °FClear.6 mph78%30.09 "Hg10 mi
11:30 PM
Dec 27
7 °FClear.8 mph78%30.12 "Hg10 mi
11:00 PM9 °FClear.8 mph72%30.12 "Hg10 mi
10:30 PM9 °FClear.8 mph72%30.12 "Hg10 mi
10:00 PM1 °FClear.3 mph85%30.12 "Hg10 mi
9:30 PM1 °FClear.3 mph78%30.15 "Hg10 mi
9:00 PM1 °FClear.3 mph78%30.15 "Hg10 mi
8:30 PM-2 °FClear.1 mph92%30.15 "Hg10 mi
8:00 PM0 °FClear.3 mph84%30.15 "Hg10 mi
7:30 PM1 °FClear.1 mph85%30.18 "Hg10 mi
7:00 PM5 °FClear.1 mph78%30.18 "Hg10 mi
6:30 PM1 °FClear.3 mph78%30.18 "Hg10 mi
6:00 PM5 °FSunny.3 mph78%30.18 "Hg10 mi
5:30 PM5 °FSunny.3 mph72%30.18 "Hg10 mi
5:00 PM7 °FSunny.3 mph66%30.18 "Hg10 mi
4:30 PM10 °FSunny.1 mph56%30.18 "Hg10 mi
4:00 PM10 °FSunny.1 mph56%30.18 "Hg10 mi
3:30 PM10 °FSunny.3 mph56%30.18 "Hg10 mi
3:00 PM9 °FSunny.3 mph61%30.18 "Hg10 mi
2:30 PM9 °FSunny.3 mph56%30.18 "Hg10 mi
1:30 PM5 °FSunny.3 mph60%30.21 "Hg10 mi
1:00 PM3 °FSunny.3 mph66%30.21 "Hg10 mi
12:30 PM3 °FSunny.3 mph66%30.21 "Hg10 mi
12:00 PM0 °FSunny.1 mph71%30.21 "Hg10 mi
11:30 AM-2 °FSunny.3 mph71%30.21 "Hg10 mi
11:00 AM-4 °FSunny.3 mph71%30.24 "Hg10 mi
10:30 AM-11 °FSunny.No wind76%30.24 "Hg10 mi
10:00 AM-13 °FSunny.No wind76%30.24 "Hg10 mi
9:30 AM-13 °FClear.No wind83%30.24 "Hg10 mi
9:00 AM-15 °FClear.No wind83%30.24 "Hg10 mi
8:30 AM-11 °FClear.1 mph76%30.24 "Hg10 mi
8:00 AM-15 °FClear.1 mph76%30.24 "Hg10 mi
7:30 AM-13 °FClear.1 mph83%30.24 "Hg10 mi
6:30 AM-8 °FClear.3 mph77%30.21 "Hg10 mi
6:00 AM-9 °FClear.3 mph77%30.21 "Hg10 mi
5:30 AM-8 °FPassing clouds.3 mph70%30.21 "HgN/A
5:00 AM-8 °FClear.6 mph77%30.21 "Hg10 mi
4:30 AM-8 °FPassing clouds.6 mph77%30.21 "HgN/A
4:00 AM-8 °FPassing clouds.6 mph70%30.21 "HgN/A
Weather by CustomWeather, © 2014

See weather overviewHow to use our weather pages